Location: ????????
(55.0559°N, 39.1270°E)
Time: 17:12:00
(UTC+00:00)

NOAA 12 - Pass Details

Date: 15 November 2025
Orbit: 793 x 812 km, 98.6° (Epoch: 14 December)

Event Time Altitude Azimuth Distance (km) Brightness Sun altitude
Rises 02:33:37 0° 17° (NNE) 3,350 7.5 -20.0°
Reaches altitude 10° 02:35:59 10° 20° (NNE) 2,415 6.8 -19.6°
Maximum altitude 02:41:19 69° 103° (ESE) 874 4.4 -18.9°
Drops below altitude 10° 02:46:37 10° 187° (S) 2,394 6.6 -18.1°
Sets 02:48:57 0° 190° (S) 3,320 7.3 -17.8°
